Location: *
(50.3194°N, 7.1067°E)
Time: 10:02:43
(UTC+00:00)

Cosmos 2297 Rocket - Pass Details

Date: 22 September 2019
Orbit: 841 x 842 km, 71.0° (Epoch: 14 October)

Event Time Altitude Azimuth Distance (km) Brightness Sun altitude
Rises 19:56:12 0° 225° (SW) 3,390 5.5 -23.0°
Reaches altitude 10° 19:58:43 10° 230° (SW) 2,459 4.8 -23.3°
Maximum altitude 20:04:12 51° 306° (NW) 1,052 3.0 -24.1°
Drops below altitude 10° 20:09:44 10° 23° (NNE) 2,472 4.7 -24.8°
Sets 20:12:16 0° 28° (NNE) 3,410 5.4 -25.1°
